Location: Gro�bocka
(50.8204°N, 11.9702°E)
Time: 01:47:26
(UTC+00:00)

Cosmos 1076 Rocket - Pass Details

Date: 29 October 2020
Orbit: 589 x 613 km, 82.5° (Epoch: 23 November)

Event Time Altitude Azimuth Distance (km) Brightness Sun altitude
Rises 16:48:44 0° 358° (N) 2,836 6.9 -9.5°
Reaches altitude 10° 16:51:14 10° 11° (N) 1,930 5.9 -9.9°
Maximum altitude 16:54:51 27° 69° (ENE) 1,165 4.4 -10.5°
Drops below altitude 10° 16:58:28 10° 128° (SE) 1,923 5.7 -11.0°
Sets 17:00:57 0° 140° (SE) 2,822 6.6 -11.4°
